Retour au catalogue

STARLINK-5416

ActifCommunicationsVLEO
NORAD 54855·PAYLOAD·🇺🇸 United States

Lancé Dec 28, 2022 depuis Cape Canaveral Space Force Station

Loading…

Prochains Passages (prochaines 24 heures)

TLE

FraisSource: CelesTrak SupGP

Époque: Sep 15, 2026, 02:25 UTC

1 54855C 22177AM  26258.10118056  .00057540  00000+0  20841-2 0  2586
2 54855  43.0023 131.6288 0001565 275.3724  15.3609 15.27549886    17

Suivez STARLINK-5416 en temps réel avec AllMySat

Download on the App Store